When you browse on this site, cookies collect data to enhance your experience and personalize the content and advertising you see.
Visit our Privacy Policy to learn more. By continuing to use the site, you agree to this use of cookies and data.

Meteo pe oră la Bucureşti

Astăzi, 12 Iulie, Duminică

Timp Temperatura Precipitaţii Vânt Presiune Umiditate
00:00 +21°C° 0 mm 2 m/s 754 mmHg 65%
01:00 +21°C° 0 mm 1 m/s 754 mmHg 68%
02:00 +20°C° 0 mm 1 m/s 754 mmHg 71%
03:00 +20°C° 0 mm 1 m/s 754 mmHg 72%
04:00 +20°C° 0 mm 1 m/s 753 mmHg 73%
05:00 +20°C° 0 mm 1 m/s 753 mmHg 74%
06:00 +22°C° 0 mm 1 m/s 753 mmHg 68%
07:00 +24°C° 0 mm 1 m/s 753 mmHg 61%
08:00 +26°C° 0 mm 1 m/s 754 mmHg 52%
09:00 +27°C° 0 mm 1 m/s 753 mmHg 46%
10:00 +29°C° 0 mm 1 m/s 753 mmHg 41%
11:00 +31°C° 0 mm 1 m/s 753 mmHg 36%
12:00 +31°C° 0 mm 1 m/s 753 mmHg 35%
13:00 +32°C° 0 mm 1 m/s 753 mmHg 34%
14:00 +33°C° 0 mm 1 m/s 753 mmHg 33%
15:00 +32°C° 0 mm 2 m/s 752 mmHg 35%
16:00 +32°C° 0 mm 2 m/s 752 mmHg 37%
17:00 +32°C° 0 mm 2 m/s 752 mmHg 40%
18:00 +30°C° 0.1 mm 3 m/s 752 mmHg 46%
19:00 +28°C° 0.1 mm 4 m/s 753 mmHg 52%
20:00 +26°C° 0.1 mm 4 m/s 753 mmHg 58%
21:00 +23°C° 0.6 mm 4 m/s 753 mmHg 65%
22:00 +21°C° 0.6 mm 4 m/s 754 mmHg 72%
23:00 +20°C° 0.6 mm 4 m/s 754 mmHg 79%

Mâine, 13 Iulie, Luni

Timp Temperatura Precipitaţii Vânt Presiune Umiditate
00:00 +19°C° 0.3 mm 4 m/s 754 mmHg 80%
01:00 +18°C° 0.3 mm 4 m/s 754 mmHg 80%
02:00 +17°C° 0.3 mm 4 m/s 755 mmHg 81%
03:00 +17°C° 0.1 mm 4 m/s 755 mmHg 81%
04:00 +17°C° 0.1 mm 4 m/s 754 mmHg 82%
05:00 +16°C° 0.1 mm 3 m/s 754 mmHg 82%
06:00 +16°C° 0.5 mm 3 m/s 755 mmHg 83%
07:00 +14°C° 0.5 mm 3 m/s 755 mmHg 84%
08:00 +14°C° 0.5 mm 3 m/s 756 mmHg 85%
09:00 +15°C° 0.6 mm 2 m/s 756 mmHg 86%
10:00 +15°C° 0.6 mm 2 m/s 756 mmHg 86%
11:00 +15°C° 0.6 mm 2 m/s 756 mmHg 87%
12:00 +16°C° 0.1 mm 3 m/s 756 mmHg 85%
13:00 +16°C° 0.1 mm 3 m/s 756 mmHg 82%
14:00 +17°C° 0.1 mm 4 m/s 755 mmHg 80%
15:00 +18°C° 0 mm 4 m/s 755 mmHg 75%
16:00 +19°C° 0 mm 3 m/s 755 mmHg 69%
17:00 +21°C° 0 mm 3 m/s 754 mmHg 64%
18:00 +20°C° 0 mm 3 m/s 755 mmHg 68%
19:00 +19°C° 0 mm 3 m/s 755 mmHg 73%
20:00 +18°C° 0 mm 2 m/s 755 mmHg 77%
21:00 +17°C° 0 mm 2 m/s 755 mmHg 78%
22:00 +17°C° 0 mm 2 m/s 755 mmHg 79%
23:00 +16°C° 0 mm 1 m/s 756 mmHg 80%

Poimâine, 14 Iulie, Marţi

Timp Temperatura Precipitaţii Vânt Presiune Umiditate
00:00 +16°C° 0 mm 1 m/s 756 mmHg 80%
01:00 +16°C° 0 mm 1 m/s 756 mmHg 81%
02:00 +15°C° 0 mm 1 m/s 756 mmHg 81%
03:00 +15°C° 0 mm 1 m/s 756 mmHg 82%
04:00 +15°C° 0 mm 1 m/s 756 mmHg 82%
05:00 +14°C° 0 mm 1 m/s 755 mmHg 82%
06:00 +16°C° 0 mm 1 m/s 756 mmHg 75%
07:00 +18°C° 0 mm 1 m/s 756 mmHg 68%
08:00 +19°C° 0 mm 2 m/s 756 mmHg 61%
09:00 +20°C° 0 mm 2 m/s 755 mmHg 56%
10:00 +23°C° 0 mm 2 m/s 755 mmHg 51%
11:00 +25°C° 0 mm 2 m/s 755 mmHg 46%
12:00 +25°C° 0 mm 2 m/s 755 mmHg 44%
13:00 +26°C° 0 mm 2 m/s 754 mmHg 41%
14:00 +27°C° 0 mm 2 m/s 754 mmHg 39%
15:00 +27°C° 0 mm 2 m/s 754 mmHg 39%
16:00 +27°C° 0 mm 2 m/s 754 mmHg 38%
17:00 +27°C° 0 mm 1 m/s 753 mmHg 38%
18:00 +26°C° 0 mm 2 m/s 754 mmHg 41%
19:00 +24°C° 0 mm 2 m/s 754 mmHg 45%
20:00 +23°C° 0 mm 2 m/s 754 mmHg 48%
21:00 +21°C° 0 mm 2 m/s 754 mmHg 50%
22:00 +21°C° 0 mm 2 m/s 754 mmHg 53%
23:00 +20°C° 0 mm 2 m/s 755 mmHg 55%

15 Iulie, Miercuri

Timp Temperatura Precipitaţii Vânt Presiune Umiditate
00:00 +19°C° 0 mm 2 m/s 755 mmHg 56%
01:00 +20°C° 0 mm 1 m/s 755 mmHg 58%
02:00 +19°C° 0 mm 1 m/s 755 mmHg 60%
03:00 +19°C° 0 mm 1 m/s 755 mmHg 62%
04:00 +16°C° 0 mm 0 m/s 755 mmHg 63%
05:00 +16°C° 0 mm 0 m/s 755 mmHg 65%
06:00 +18°C° 0 mm 0 m/s 755 mmHg 61%
07:00 +19°C° 0 mm 0 m/s 755 mmHg 57%
08:00 +23°C° 0 mm 1 m/s 755 mmHg 53%
09:00 +24°C° 0 mm 1 m/s 755 mmHg 48%
10:00 +26°C° 0 mm 1 m/s 755 mmHg 44%
11:00 +28°C° 0 mm 1 m/s 755 mmHg 39%
12:00 +28°C° 0 mm 1 m/s 754 mmHg 37%
13:00 +29°C° 0 mm 1 m/s 754 mmHg 35%
14:00 +30°C° 0 mm 2 m/s 754 mmHg 33%
15:00 +30°C° 0 mm 2 m/s 753 mmHg 35%
16:00 +29°C° 0 mm 2 m/s 753 mmHg 36%
17:00 +29°C° 0 mm 2 m/s 753 mmHg 38%
18:00 +27°C° 0 mm 2 m/s 753 mmHg 41%
19:00 +26°C° 0 mm 2 m/s 753 mmHg 44%
20:00 +25°C° 0 mm 2 m/s 753 mmHg 48%
21:00 +24°C° 0 mm 2 m/s 753 mmHg 50%
22:00 +23°C° 0 mm 2 m/s 753 mmHg 52%
23:00 +21°C° 0 mm 3 m/s 753 mmHg 54%

16 Iulie, Joi

Timp Temperatura Precipitaţii Vânt Presiune Umiditate
00:00 +21°C° 0 mm 2 m/s 753 mmHg 56%
01:00 +20°C° 0 mm 2 m/s 753 mmHg 58%
02:00 +20°C° 0 mm 1 m/s 753 mmHg 60%
03:00 +20°C° 0 mm 1 m/s 753 mmHg 62%
04:00 +19°C° 0 mm 1 m/s 753 mmHg 64%
05:00 +17°C° 0 mm 0 m/s 753 mmHg 66%
06:00 +19°C° 0 mm 0 m/s 753 mmHg 60%
07:00 +21°C° 0 mm 0 m/s 753 mmHg 55%
08:00 +25°C° 0 mm 1 m/s 753 mmHg 49%
09:00 +26°C° 0 mm 1 m/s 753 mmHg 45%
10:00 +28°C° 0 mm 2 m/s 752 mmHg 40%
11:00 +30°C° 0 mm 2 m/s 752 mmHg 36%
12:00 +31°C° 0 mm 2 m/s 752 mmHg 33%
13:00 +31°C° 0 mm 2 m/s 752 mmHg 31%
14:00 +32°C° 0 mm 2 m/s 751 mmHg 28%
15:00 +32°C° 0 mm 2 m/s 751 mmHg 28%
16:00 +32°C° 0 mm 2 m/s 751 mmHg 29%
17:00 +32°C° 0 mm 2 m/s 750 mmHg 29%
18:00 +30°C° 0 mm 2 m/s 750 mmHg 34%
19:00 +28°C° 0 mm 3 m/s 750 mmHg 39%
20:00 +26°C° 0 mm 3 m/s 750 mmHg 44%
21:00 +25°C° 0 mm 3 m/s 750 mmHg 47%
22:00 +23°C° 0 mm 4 m/s 751 mmHg 50%
23:00 +22°C° 0 mm 4 m/s 751 mmHg 53%

17 Iulie, Vineri

Timp Temperatura Precipitaţii Vânt Presiune Umiditate
00:00 +22°C° 0 mm 4 m/s 750 mmHg 54%
01:00 +21°C° 0 mm 3 m/s 750 mmHg 55%
02:00 +20°C° 0 mm 2 m/s 750 mmHg 56%
03:00 +20°C° 0 mm 2 m/s 750 mmHg 56%
04:00 +21°C° 0 mm 1 m/s 750 mmHg 57%
05:00 +20°C° 0 mm 1 m/s 750 mmHg 58%
06:00 +21°C° 0 mm 2 m/s 750 mmHg 55%
07:00 +23°C° 0 mm 2 m/s 750 mmHg 53%
08:00 +24°C° 0 mm 2 m/s 750 mmHg 50%
09:00 +26°C° 0 mm 2 m/s 750 mmHg 45%
10:00 +28°C° 0 mm 2 m/s 750 mmHg 40%
11:00 +29°C° 0 mm 2 m/s 750 mmHg 35%
12:00 +30°C° 0 mm 2 m/s 750 mmHg 34%
13:00 +31°C° 0 mm 2 m/s 750 mmHg 34%
14:00 +31°C° 0 mm 2 m/s 750 mmHg 33%
15:00 +29°C° 0.2 mm 3 m/s 750 mmHg 44%
16:00 +26°C° 0.2 mm 5 m/s 749 mmHg 55%
17:00 +23°C° 0.2 mm 6 m/s 749 mmHg 66%
18:00 +22°C° 0 mm 4 m/s 749 mmHg 68%
19:00 +22°C° 0 mm 3 m/s 750 mmHg 70%
20:00 +22°C° 0 mm 1 m/s 750 mmHg 71%
21:00 +22°C° 0.1 mm 1 m/s 750 mmHg 74%
22:00 +21°C° 0.1 mm 1 m/s 750 mmHg 76%
23:00 +20°C° 0.1 mm 2 m/s 750 mmHg 78%
Arată mai mult